Weather History for Wildwood, NJ

Change the Weather History Date:

Monday, October 7, 2013

  Actual Average Record
Temperature  
Mean Temperature 70 °F -  
Max Temperature 78 °F 66 °F 84 °F (2007)
Min Temperature 62 °F 51 °F 42 °F (1999)
Cooling Degree Days 5    
Growing Degree Days 20 (Base 50)    
Moisture  
Dew Point 64 °F    
Average Humidity 81    
Maximum Humidity 88    
Minimum Humidity 68    
Precipitation  
Precipitation 0.47 in - - ()
Sea Level Pressure  
Sea Level Pressure 29.94 in    
Wind  
Wind Speed 13 mph (South)    
Max Wind Speed 24 mph    
Max Gust Speed 36 mph    
Visibility 10 miles    
Events      
Averages and records for this station are not official NWS values.
T = Trace of Precipitation, MM = Missing Value Source: NWS Daily Summary

Daily Weather History Graph

Daily Weather History Graph

Search for Another Location

Airport:

Trip Planner

Search our weather history database for the weather conditions in past years. The results will help you decide how hot, cold, wet, or windy it might be!

Date:

Astronomy

Oct. 07, 2013 Rise Set
Actual Time 7:01 AM EDT 6:32 PM EDT
Civil Twilight 6:34 AM EDT 6:59 PM EDT
Nautical Twilight 6:03 AM EDT 7:30 PM EDT
Astronomical Twilight 5:32 AM EDT 8:01 PM EDT
Moon 9:47 AM EDT (10/7) 8:17 PM EDT (10/7)
Length of Visible Light 12h 24m
Length of Day
11h 31m
Waxing Crescent, 8% of the Moon is Illuminated
Oct 7
Waxing Crescent
Oct 11
First Quarter
Oct 18
Full
Oct 26
Last Quarter
Nov 3
New

Hourly Weather History & Observations

Time (EDT) Temp. Dew Point Humidity Pressure Visibility Wind Dir Wind Speed Gust Speed Precip Events Conditions
12:15 AM 69.8 °F 66.2 °F 88% 30.02 in 10.0 mi SSE 16.1 mph - N/A   Clear
12:35 AM 69.8 °F 66.2 °F 88% 30.02 in 10.0 mi SSE 13.8 mph 17.3 mph N/A   Clear
12:55 AM 69.8 °F 66.2 °F 88% 30.02 in 10.0 mi SSE 12.7 mph - N/A   Clear
1:15 AM 69.8 °F 66.2 °F 88% 30.02 in 10.0 mi SSE 11.5 mph - N/A   Clear
1:35 AM 69.8 °F 64.4 °F 83% 30.01 in 10.0 mi SSE 13.8 mph - N/A   Clear
1:55 AM 69.8 °F 64.4 °F 83% 30.01 in 10.0 mi SSE 12.7 mph 17.3 mph N/A   Partly Cloudy
2:15 AM 69.8 °F 64.4 °F 83% 30.00 in 10.0 mi SSE 12.7 mph - N/A   Partly Cloudy
2:35 AM 69.8 °F 64.4 °F 83% 29.99 in 10.0 mi SSE 11.5 mph - N/A   Clear
2:55 AM 69.8 °F 66.2 °F 88% 29.99 in 10.0 mi SSE 12.7 mph - N/A   Clear
3:15 AM 69.8 °F 66.2 °F 88% 29.99 in 10.0 mi SSE 11.5 mph - N/A   Mostly Cloudy
3:35 AM 69.8 °F 66.2 °F 88% 29.97 in 10.0 mi SSE 12.7 mph - N/A   Overcast
3:55 AM 69.8 °F 66.2 °F 88% 29.97 in 10.0 mi SSE 13.8 mph 18.4 mph N/A   Mostly Cloudy
4:15 AM 69.8 °F 66.2 °F 88% 29.97 in 10.0 mi SSE 13.8 mph - N/A   Scattered Clouds
4:35 AM 69.8 °F 66.2 °F 88% 29.97 in 10.0 mi SSE 10.4 mph - N/A   Mostly Cloudy
4:55 AM 69.8 °F 66.2 °F 88% 29.96 in 10.0 mi SSE 13.8 mph - N/A   Mostly Cloudy
5:15 AM 69.8 °F 66.2 °F 88% 29.96 in 10.0 mi SSE 13.8 mph 18.4 mph N/A   Overcast
5:35 AM 69.8 °F 66.2 °F 88% 29.96 in 10.0 mi SSE 12.7 mph - N/A   Overcast
5:55 AM 69.8 °F 66.2 °F 88% 29.95 in 10.0 mi SSE 12.7 mph - N/A   Overcast
6:15 AM 69.8 °F 66.2 °F 88% 29.95 in 10.0 mi North - - N/A   Overcast
6:35 AM 69.8 °F 66.2 °F 88% 29.95 in 10.0 mi SSE 12.7 mph - N/A   Overcast
6:55 AM 69.8 °F 66.2 °F 88% 29.94 in 10.0 mi SSE 11.5 mph 19.6 mph N/A   Overcast
7:15 AM 69.8 °F 66.2 °F 88% 29.94 in 10.0 mi SSE 13.8 mph 17.3 mph N/A   Overcast
7:35 AM 69.8 °F 66.2 °F 88% 29.93 in 10.0 mi SSE 12.7 mph 17.3 mph N/A   Mostly Cloudy
7:55 AM 71.6 °F 66.2 °F 83% 29.93 in 10.0 mi SSE 12.7 mph - N/A   Overcast
8:15 AM 71.6 °F 66.2 °F 83% 29.93 in 10.0 mi SSE 15.0 mph 20.7 mph N/A   Overcast
8:35 AM 71.6 °F 66.2 °F 83% 29.93 in 10.0 mi SSE 13.8 mph 19.6 mph N/A   Mostly Cloudy
8:55 AM 71.6 °F 66.2 °F 83% 29.93 in 10.0 mi SSE 16.1 mph - N/A   Mostly Cloudy
9:15 AM 73.4 °F 66.2 °F 78% 29.92 in 10.0 mi South 15.0 mph 23.0 mph N/A   Overcast
9:35 AM 73.4 °F 66.2 °F 78% 29.92 in 10.0 mi South 13.8 mph 21.9 mph N/A   Overcast
9:55 AM 73.4 °F 66.2 °F 78% 29.92 in 10.0 mi South 16.1 mph 24.2 mph N/A   Overcast
10:15 AM 73.4 °F 66.2 °F 78% 29.92 in 10.0 mi South 19.6 mph 24.2 mph N/A   Overcast
10:35 AM 75.2 °F 68.0 °F 78% 29.92 in 10.0 mi South 19.6 mph 27.6 mph N/A   Overcast
10:55 AM 75.2 °F 68.0 °F 78% 29.91 in 10.0 mi South 19.6 mph 26.5 mph N/A   Overcast
11:15 AM 75.2 °F 68.0 °F 78% 29.91 in 10.0 mi South 18.4 mph 24.2 mph N/A   Mostly Cloudy
11:35 AM 78.8 °F 69.8 °F 74% 29.90 in 10.0 mi South 20.7 mph 31.1 mph N/A   Mostly Cloudy
11:55 AM 78.8 °F 68.0 °F 69% 29.89 in 10.0 mi South 15.0 mph 28.8 mph N/A   Mostly Cloudy
12:15 PM 77.0 °F 68.0 °F 74% 29.90 in 10.0 mi South 24.2 mph 28.8 mph N/A   Scattered Clouds
12:35 PM 77.0 °F 68.0 °F 74% 29.89 in 10.0 mi South 18.4 mph 27.6 mph N/A   Mostly Cloudy
12:55 PM 78.8 °F 68.0 °F 69% 29.88 in 10.0 mi South 24.2 mph 34.5 mph N/A   Scattered Clouds
1:15 PM 77.0 °F 68.0 °F 74% 29.88 in 10.0 mi South 23.0 mph 32.2 mph N/A   Mostly Cloudy
1:35 PM 78.8 °F 68.0 °F 69% 29.87 in 10.0 mi South 20.7 mph 29.9 mph N/A   Overcast
1:55 PM 78.8 °F 68.0 °F 69% 29.86 in 10.0 mi South 21.9 mph 35.7 mph N/A   Scattered Clouds
2:15 PM 78.8 °F 68.0 °F 69% 29.86 in 10.0 mi South 20.7 mph 29.9 mph N/A   Clear
2:35 PM 78.8 °F 68.0 °F 69% 29.86 in 10.0 mi South 20.7 mph 31.1 mph N/A   Clear
2:55 PM 78.8 °F 68.0 °F 69% 29.87 in 10.0 mi South 19.6 mph 27.6 mph N/A   Partly Cloudy
3:15 PM 77.0 °F 66.2 °F 69% 29.86 in 10.0 mi South 19.6 mph 27.6 mph N/A   Partly Cloudy
3:35 PM 77.0 °F 66.2 °F 69% 29.86 in 10.0 mi South 16.1 mph 26.5 mph N/A   Clear
3:55 PM 71.6 °F 62.6 °F 73% 29.91 in 10.0 mi West 15.0 mph 24.2 mph N/A   Mostly Cloudy
4:15 PM - - N/A% - - North - - 0.09 in   Unknown
4:35 PM 66.2 °F 62.6 °F 88% 29.92 in 9.0 mi SW 10.4 mph - 0.09 in   Unknown
4:55 PM 66.2 °F 62.6 °F 88% 29.93 in 8.0 mi SW 8.1 mph - 0.16 in   Mostly Cloudy
5:15 PM 66.2 °F 62.6 °F 88% 29.92 in 9.0 mi WSW 6.9 mph - 0.02 in   Overcast
5:35 PM 66.2 °F 62.6 °F 88% 29.93 in 10.0 mi WSW 8.1 mph - 0.13 in   Mostly Cloudy
5:55 PM 66.2 °F 62.6 °F 88% 29.93 in 10.0 mi West 8.1 mph - 0.17 in   Mostly Cloudy
6:15 PM 66.2 °F 62.6 °F 88% 29.92 in 10.0 mi WNW 10.4 mph 17.3 mph 0.04 in   Overcast
6:35 PM 62.6 °F 57.2 °F 82% 29.92 in 10.0 mi NW 6.9 mph - 0.06 in   Overcast
6:55 PM 62.6 °F 57.2 °F 82% 29.94 in 10.0 mi NW 8.1 mph 18.4 mph 0.09 in   Overcast
7:15 PM 62.6 °F 57.2 °F 82% 29.94 in 10.0 mi North 3.5 mph - 0.02 in   Overcast
7:35 PM 62.6 °F 57.2 °F 82% 29.97 in 10.0 mi WNW 8.1 mph - 0.04 in   Overcast
7:55 PM 62.6 °F 57.2 °F 82% 29.95 in 10.0 mi North 6.9 mph - 0.05 in   Mostly Cloudy
8:15 PM 62.6 °F 57.2 °F 82% 29.95 in 10.0 mi NNW 6.9 mph - N/A   Overcast
8:35 PM 62.6 °F 57.2 °F 82% 29.96 in 10.0 mi NNW 4.6 mph - N/A   Overcast
8:55 PM 62.6 °F 57.2 °F 82% 29.96 in 10.0 mi NNW 4.6 mph - N/A   Overcast
9:15 PM 62.6 °F 55.4 °F 77% 29.97 in 10.0 mi NNW 4.6 mph - N/A   Overcast
9:35 PM 62.6 °F 55.4 °F 77% 29.97 in 10.0 mi NNW 5.8 mph - N/A   Overcast
9:55 PM 62.6 °F 55.4 °F 77% 29.98 in 10.0 mi NNW 4.6 mph - N/A   Overcast
10:15 PM 62.6 °F 55.4 °F 77% 30.00 in 10.0 mi NNW 4.6 mph - N/A   Overcast
10:35 PM 62.6 °F 55.4 °F 77% 30.01 in 10.0 mi North 5.8 mph - N/A   Overcast
10:55 PM 62.6 °F 55.4 °F 77% 30.02 in 10.0 mi North 3.5 mph - N/A   Overcast
11:15 PM 62.6 °F 55.4 °F 77% 30.02 in 10.0 mi NNW 10.4 mph 16.1 mph N/A   Overcast
11:35 PM 62.6 °F 53.6 °F 72% 30.03 in 10.0 mi NW 8.1 mph - N/A   Overcast
11:55 PM 62.6 °F 51.8 °F 68% 30.03 in 10.0 mi NNW 6.9 mph - N/A   Overcast